United States

Ashburn, VA Weather Archive

Below you will find the last 24 hours of weather readings for Ashburn VA

Ashburn VA Today's Weather Data

Observed at: Ashburn, VA

Hour Observerd Temp Pressure Visibility Humidity Dew Point Wind
04:00 Fair 61°F (16.1°C) 101.59 kPa 10 miles 59% 46.4°F (8°C) 3 mph S 173.75°
03:00 Fair 59°F (15°C) 101.59 kPa 10 miles 63% 46.4°F (8°C) 4 mph S 173.75°
02:00 Fair 59°F (15°C) 101.59 kPa 10 miles 63% 46.4°F (8°C) 4 mph S 173.75°
01:00 Fair 52°F (11.1°C) 101.59 kPa 10 miles 82% 46.4°F (8°C) 6 mph W 263.75°
00:00 Fair 52°F (11.1°C) 101.59 kPa 10 miles 82% 46.4°F (8°C) 6 mph W 263.75°
23:00 Fair 59°F (15°C) 101.59 kPa 10 miles 63% 46.4°F (8°C) 3 mph SW 218.75°
22:00 Fair 59°F (15°C) 101.59 kPa 10 miles 63% 46.4°F (8°C) 6 mph W 263.75°
21:00 Fair 57°F (13.9°C) 101.59 kPa 10 miles 67% 46.4°F (8°C) 9 mph W 263.75°
20:00 Fair 59°F (15°C) 101.59 kPa 10 miles 59% 44.6°F (7°C) 5 mph W 263.75°
19:00 Fair 63°F (17.2°C) 101.59 kPa 10 miles 52% 44.6°F (7°C) 8 mph W 263.75°
18:00 Fair 63°F (17.2°C) 101.59 kPa 10 miles 52% 44.6°F (7°C) 8 mph W 263.75°
17:00 Fair 68°F (20°C) 101.59 kPa 10 miles 46% 46.4°F (8°C) 5 mph W 263.75°23 mph
16:00 Fair 72°F (22.2°C) 101.59 kPa 10 miles 36% 42.8°F (6°C) 9 mph W 263.75°19 mph
15:00 Fair 72°F (22.2°C) 101.59 kPa 10 miles 41% 46.4°F (8°C) 8 mph W 263.75°17 mph
14:00 Fair 72°F (22.2°C) 101.59 kPa 10 miles 41% 46.4°F (8°C) 8 mph W 263.75°19 mph
13:00 Fair 72°F (22.2°C) 101.59 kPa 10 miles 44% 48.2°F (9°C) 4 mph W 263.75°19 mph
12:00 Fair 70°F (21.1°C) 101.59 kPa 10 miles 46% 48.2°F (9°C) 12 mph NW 308.75°18 mph
11:00 Fair 63°F (17.2°C) 101.59 kPa 10 miles 56% 46.4°F (8°C) 5 mph SW 218.75°21 mph
10:00 Fair 63°F (17.2°C) 101.59 kPa 10 miles 56% 46.4°F (8°C) 5 mph SW 218.75°18 mph
09:00 Fair 55°F (12.8°C) 101.59 kPa 10 miles 72% 46.4°F (8°C) 3 mph SW 218.75°
08:00 Fair 41°F (5°C) 101.59 kPa 10 miles 100% 41°F (5°C) 3 mph S 173.75°
07:00 Fair 41°F (5°C) 101.59 kPa 10 miles 100% 41°F (5°C) 3 mph S 173.75°
06:00 Fair 41°F (5°C) 101.59 kPa 10 miles 100% 41°F (5°C) 3 mph W 263.75°
05:00 Fair 43°F (6.1°C) 101.59 kPa 10 miles 93% 41°F (5°C) 4 mph N 5°


Home | Earthquakes | About Us | Contact Us | Privacy

Copyright Friendly Forecast 2012 - 2021